Satellite: RS-30
Catalog number: 32953
Epoch time:      12253.39994680
Element set:     127
Inclination:      082.4973 deg
RA of node:       242.7645 deg
Eccentricity:    0.0019939
Arg of perigee:   121.2721 deg
Mean anomaly:     239.0315 deg
Mean motion:   12.43027440 rev/day
Decay rate:        1.0e-07 rev/day^2
Epoch rev:           19502
Checksum:              285

Satellite: PHARMSAT
Catalog number: 35002
Epoch time:      12226.86484473
Element set:      78
Inclination:      040.4341 deg
RA of node:       050.6671 deg
Eccentricity:    0.0012079
Arg of perigee:   300.9773 deg
Mean anomaly:     059.0492 deg
Mean motion:   16.39309245 rev/day
Decay rate:   7.728342e-02 rev/day^2
Epoch rev:           18355
Checksum:              302

Satellite: METEOR-M
Catalog number: 35865
Epoch time:      12253.24122791
Element set:     762
Inclination:      098.6459 deg
RA of node:       305.9539 deg
Eccentricity:    0.0002509
Arg of perigee:   149.6211 deg
Mean anomaly:     210.5112 deg
Mean motion:   14.21868884 rev/day
Decay rate:        1.6e-07 rev/day^2
Epoch rev:           15454
Checksum:              297

Satellite: RS-38
Catalog number: 35869
Epoch time:      12253.53120399
Element set:     752
Inclination:      098.6410 deg
RA of node:       306.2192 deg
Eccentricity:    0.0004563
Arg of perigee:   157.9754 deg
Mean anomaly:     202.1621 deg
Mean motion:   14.22086176 rev/day
Decay rate:        7.8e-07 rev/day^2
Epoch rev:           15460
Checksum:              301

Satellite: JUGNU
Catalog number: 37839
Epoch time:      12253.26230616
Element set:     223
Inclination:      019.9598 deg
RA of node:       208.8995 deg
Eccentricity:    0.0019382
Arg of perigee:   069.5534 deg
Mean anomaly:     290.6953 deg
Mean motion:   14.12078899 rev/day
Decay rate:       6.20e-06 rev/day^2
Epoch rev:            4714
Checksum:              329

Satellite: SRMSAT
Catalog number: 37841
Epoch time:      12253.28976920
Element set:     224
Inclination:      019.9693 deg
RA of node:       215.2568 deg
Eccentricity:    0.0011436
Arg of perigee:   032.6275 deg
Mean anomaly:     327.4850 deg
Mean motion:   14.10158961 rev/day
Decay rate:       2.64e-06 rev/day^2
Epoch rev:            4707
Checksum:              297

Satellite: RAX-2
Catalog number: 37853
Epoch time:      12252.93187707
Element set:    0291
Inclination:      101.7041 deg
RA of node:       331.2613 deg
Eccentricity:    0.0244963
Arg of perigee:   112.1407 deg
Mean anomaly:     250.5963 deg
Mean motion:   14.80693775 rev/day
Decay rate:     1.0106e-04 rev/day^2
Epoch rev:           04679
Checksum:              293

Satellite: AUBIESAT
Catalog number: 37854
Epoch time:      12252.93112172
Element set:    0288
Inclination:      101.7100 deg
RA of node:       331.6248 deg
Eccentricity:    0.0246459
Arg of perigee:   111.3745 deg
Mean anomaly:     251.3906 deg
Mean motion:   14.81145951 rev/day
Decay rate:     1.0697e-04 rev/day^2
Epoch rev:           04678
Checksum:              292

Satellite: HRBE
Catalog number: 37855
Epoch time:      12252.88620683
Element set:     276
Inclination:      101.7069 deg
RA of node:       331.4841 deg
Eccentricity:    0.0245935
Arg of perigee:   111.5928 deg
Mean anomaly:     251.1644 deg
Mean motion:   14.80960681 rev/day
Decay rate:     1.0268e-04 rev/day^2
Epoch rev:            4677
Checksum:              313

Satellite: RS-39
Catalog number: 38051
Epoch time:      12252.22436520
Element set:    0682
Inclination:      051.6344 deg
RA of node:       123.7797 deg
Eccentricity:    0.0012193
Arg of perigee:   339.6812 deg
Mean anomaly:     120.6919 deg
Mean motion:   15.25614967 rev/day
Decay rate:     1.3620e-04 rev/day^2
Epoch rev:           03464
Checksum:              299

Satellite: E-STAR
Catalog number: 38079
Epoch time:      12252.09384964
Element set:    0489
Inclination:      069.4833 deg
RA of node:       125.5091 deg
Eccentricity:    0.0719411
Arg of perigee:   143.0269 deg
Mean anomaly:     222.2707 deg
Mean motion:   14.20028568 rev/day
Decay rate:     5.1276e-04 rev/day^2
Epoch rev:           02933
Checksum:              311

Satellite: GOLIAT
Catalog number: 38085
Epoch time:      12253.06169139
Element set:     461
Inclination:      069.4813 deg
RA of node:       123.8478 deg
Eccentricity:    0.0725133
Arg of perigee:   142.1967 deg
Mean anomaly:     223.2449 deg
Mean motion:   14.19022318 rev/day
Decay rate:     4.9059e-04 rev/day^2
Epoch rev:            2945
Checksum:              309

Satellite: HORYU-2
Catalog number: 38340
Epoch time:      12253.36361911
Element set:     136
Inclination:      098.1803 deg
RA of node:       193.3078 deg
Eccentricity:    0.0014041
Arg of perigee:   065.0160 deg
Mean anomaly:     295.2476 deg
Mean motion:   14.70155981 rev/day
Decay rate:      1.882e-05 rev/day^2
Epoch rev:            1684
Checksum:              284

